Location: Bli��� Lhota
(48.7570°N, 14.0120°E)
Time: 05:12:11
(UTC+00:00)

NOSS 2-2 (C) - Pass Details

Date: 18 September 2020
Orbit: 468 x 1740 km, 63.3° (Epoch: 19 October)

Event Time Altitude Azimuth Distance (km) Brightness Sun altitude
Rises 18:15:34 0° 202° (SSW) 2,507 6.8 -11.5°
Reaches altitude 10° 18:17:42 10° 195° (SSW) 1,623 5.7 -11.9°
Maximum altitude 18:21:00 42° 123° (ESE) 706 3.4 -12.4°
Drops below altitude 10° 18:24:39 10° 52° (NE) 1,796 5.6 -13.0°
Sets 18:27:07 0° 46° (NE) 2,819 6.7 -13.4°
